Zurück zum Katalog

OPS 6582

TRANSIT 5B-5

AktivNavigationPO
NORAD 965·PAYLOAD·🇺🇸 United States

Gestartet Dec 13, 1964 von Vandenberg Space Force Base

Loading…

Nächste Überflüge (nächste 24 Stunden)

TLE

AktuellSource: Space-Track

Epoche: Sep 14, 2026, 07:57 UTC

1 00965U 64083D   26257.33186878  .00000048  00000-0  53780-4 0  9996
2 00965  90.0848 203.7721 0042452  19.8174 132.4854 13.57019318 55702

Verfolge OPS 6582 in Echtzeit mit AllMySat

Download on the App Store